contact:dominique.lefevre@mio.osupytheas.fr, maurice.libes@osupytheas.fr, didier.mallarino@osupytheas.fr
Project:EMSO http://www.emso-fr.org/EMSO-France
Depth: 2436.0 m
Title:EMSO Ligure Ouest : Data MII capteur AQUADOPP
Date,Latitude,Longitude,X_East,Y_North,Z_Up,Amplitude_X,Amplitude_Y,Amplitude_Z,Batterie,SoundSpeed,Heading,Pitch,Roll,Pressure,TIS,Speed,Direction
, degrees North, degrees East, m.s-1, m.s-1,m.s-1, 1, 1, 1, Volt, m.s-1, degree, degree, degree, dbar, degree_C, m.s-1, degree
2024-04-18T00:01:03,42.805,6.029,0.013,-0.047,0.007,109.0,107.0,104.0,13.4,1505.2,9.4,-0.7,1.8,2471.513,13.29,0.048,164.5
2024-04-18T00:04:03,42.805,6.029,0.045,-0.026,-0.001,108.0,108.0,105.0,13.3,1505.2,352.2,-0.7,1.8,2471.537,13.29,0.051,120.0
2024-04-18T00:07:03,42.805,6.029,0.032,-0.026,-0.008,108.0,108.0,105.0,13.4,1505.2,2.1,-0.7,1.8,2471.564,13.29,0.041,129.1
2024-04-18T00:10:03,42.805,6.029,0.024,-0.058,-0.011,108.0,108.0,105.0,13.4,1505.2,8.0,-0.7,1.8,2471.556,13.29,0.062,157.5
2024-04-18T00:13:03,42.805,6.029,0.036,-0.033,0.007,109.0,108.0,104.0,13.3,1505.2,8.9,-0.7,1.8,2471.534,13.29,0.048,132.5
2024-04-18T00:16:03,42.805,6.029,0.033,-0.026,0.013,108.0,109.0,105.0,13.4,1505.2,354.2,-0.8,1.8,2471.559,13.29,0.042,128.2
2024-04-18T00:19:03,42.805,6.029,0.047,-0.052,0.003,107.0,108.0,105.0,13.4,1505.2,356.6,-0.8,1.8,2471.554,13.29,0.07,137.9
2024-04-18T00:22:03,42.805,6.029,0.038,-0.04,0.012,108.0,107.0,104.0,13.3,1505.2,359.4,-0.8,1.8,2471.501,13.29,0.055,136.5
2024-04-18T00:25:03,42.805,6.029,0.038,-0.049,-0.016,107.0,107.0,104.0,13.4,1505.2,3.3,-0.7,1.8,2471.534,13.29,0.062,142.2
2024-04-18T00:28:03,42.805,6.029,0.012,-0.049,0.004,108.0,108.0,104.0,13.4,1505.2,355.1,-0.7,1.8,2471.522,13.29,0.05,166.2
2024-04-18T00:31:03,42.805,6.029,0.046,-0.034,0.004,108.0,109.0,104.0,13.4,1505.2,5.0,-0.8,1.8,2471.573,13.29,0.057,126.5
2024-04-18T00:34:03,42.805,6.029,0.029,-0.031,0.014,108.0,108.0,105.0,13.4,1505.2,7.3,-0.7,1.8,2471.511,13.29,0.042,136.9
2024-04-18T00:37:03,42.805,6.029,0.047,-0.037,-0.006,109.0,108.0,104.0,13.4,1505.2,355.7,-0.8,1.8,2471.545,13.29,0.059,128.2
2024-04-18T00:40:03,42.805,6.029,0.043,-0.041,0.0,108.0,108.0,104.0,13.4,1505.2,357.1,-0.8,1.8,2471.579,13.29,0.059,133.6
2024-04-18T00:43:03,42.805,6.029,0.024,-0.02,-0.018,109.0,108.0,106.0,13.4,1505.2,359.4,-0.8,1.8,2471.55,13.29,0.031,129.8
2024-04-18T00:46:03,42.805,6.029,0.035,-0.046,-0.019,108.0,109.0,103.0,13.4,1505.2,2.1,-0.8,1.8,2471.571,13.29,0.057,142.7
2024-04-18T00:49:03,42.805,6.029,0.025,-0.043,0.02,108.0,109.0,104.0,13.3,1505.2,9.1,-0.8,1.8,2471.561,13.29,0.049,149.8
2024-04-18T00:52:03,42.805,6.029,0.006,-0.048,-0.008,108.0,108.0,104.0,13.4,1505.2,4.2,-0.7,1.8,2471.545,13.29,0.048,172.9
2024-04-18T00:55:03,42.805,6.029,0.018,-0.043,-0.001,108.0,107.0,104.0,13.3,1505.2,1.1,-0.7,1.8,2471.58,13.29,0.046,157.3
2024-04-18T00:58:03,42.805,6.029,0.042,-0.022,0.009,106.0,107.0,105.0,13.4,1505.2,3.4,-0.7,1.8,2471.558,13.29,0.047,117.6
2024-04-18T01:04:03,42.805,6.029,0.041,-0.04,-0.003,108.0,106.0,105.0,13.4,1505.2,351.6,-0.8,1.8,2471.617,13.28,0.057,134.3
2024-04-18T01:07:03,42.805,6.029,0.034,-0.031,0.012,108.0,108.0,104.0,13.4,1505.2,5.5,-0.8,1.8,2471.627,13.29,0.046,132.4
2024-04-18T01:10:03,42.805,6.029,0.033,-0.042,0.013,109.0,108.0,103.0,13.4,1505.2,357.6,-0.8,1.8,2471.618,13.29,0.053,141.8
2024-04-18T01:13:03,42.805,6.029,0.044,-0.032,0.002,107.0,107.0,104.0,13.3,1505.2,2.0,-0.8,1.8,2471.649,13.29,0.054,126.0
2024-04-18T01:16:04,42.805,6.029,0.036,-0.04,0.0,109.0,108.0,104.0,13.3,1505.2,358.2,-0.7,1.8,2471.608,13.29,0.053,138.0
2024-04-18T01:19:03,42.805,6.029,0.027,-0.046,0.007,108.0,108.0,104.0,13.4,1505.2,358.9,-0.7,1.8,2471.595,13.29,0.053,149.6
2024-04-18T01:22:03,42.805,6.029,0.022,-0.025,-0.015,109.0,107.0,104.0,13.4,1505.2,5.7,-0.7,1.8,2471.626,13.29,0.033,138.7
2024-04-18T01:25:03,42.805,6.029,0.02,-0.04,-0.027,110.0,107.0,104.0,13.3,1505.2,8.7,-0.8,1.8,2471.58,13.29,0.044,153.4
2024-04-18T01:28:03,42.805,6.029,0.037,-0.019,0.031,108.0,108.0,105.0,13.3,1505.2,352.8,-0.7,1.8,2471.586,13.29,0.041,117.2
2024-04-18T01:31:03,42.805,6.029,0.039,-0.027,0.016,108.0,107.0,104.0,13.4,1505.2,2.3,-0.8,1.8,2471.619,13.29,0.047,124.7
2024-04-18T01:34:03,42.805,6.029,0.029,-0.025,-0.018,109.0,107.0,104.0,13.3,1505.2,358.8,-0.8,1.8,2471.607,13.29,0.038,130.8
2024-04-18T01:37:03,42.805,6.029,0.037,-0.023,0.017,107.0,108.0,104.0,13.4,1505.2,7.3,-0.8,1.8,2471.575,13.29,0.043,121.9
2024-04-18T01:40:03,42.805,6.029,0.025,-0.024,-0.019,109.0,108.0,103.0,13.4,1505.2,354.8,-0.8,1.8,2471.6,13.29,0.034,133.8
2024-04-18T01:43:03,42.805,6.029,0.035,-0.043,0.001,109.0,109.0,104.0,13.4,1505.2,358.3,-0.7,1.8,2471.572,13.29,0.055,140.9
2024-04-18T01:46:03,42.805,6.029,0.039,-0.038,-0.016,109.0,109.0,104.0,13.4,1505.2,3.5,-0.7,1.8,2471.579,13.29,0.054,134.3
2024-04-18T01:49:03,42.805,6.029,0.034,-0.043,0.016,108.0,107.0,105.0,13.4,1505.2,0.0,-0.8,1.8,2471.591,13.29,0.054,141.7
2024-04-18T01:52:03,42.805,6.029,0.034,-0.037,0.03,109.0,107.0,103.0,13.4,1505.2,353.9,-0.8,1.8,2471.581,13.29,0.05,137.4
2024-04-18T01:55:03,42.805,6.029,0.046,-0.055,0.037,108.0,107.0,105.0,13.4,1505.2,5.6,-0.7,1.8,2471.602,13.29,0.071,140.1
2024-04-18T01:58:03,42.805,6.029,0.02,-0.031,-0.008,108.0,109.0,104.0,13.4,1505.2,4.5,-0.8,1.9,2471.626,13.29,0.036,147.2
2024-04-18T02:04:03,42.805,6.029,0.042,-0.042,0.025,107.0,107.0,104.0,13.3,1505.2,4.7,-0.7,1.8,2471.65,13.28,0.059,135.0
2024-04-18T02:07:03,42.805,6.029,0.045,-0.049,0.002,107.0,106.0,104.0,13.4,1505.2,9.1,-0.7,1.8,2471.624,13.29,0.066,137.4
2024-04-18T02:10:03,42.805,6.029,0.033,-0.052,0.025,106.0,108.0,104.0,13.3,1505.2,353.4,-0.8,1.8,2471.632,13.29,0.061,147.6
2024-04-18T02:13:03,42.805,6.029,0.05,-0.045,0.011,108.0,108.0,104.0,13.4,1505.2,4.5,-0.8,1.8,2471.673,13.29,0.067,132.0
2024-04-18T02:16:03,42.805,6.029,0.026,-0.054,0.007,107.0,107.0,104.0,13.4,1505.2,4.9,-0.7,1.8,2471.621,13.29,0.059,154.3
2024-04-18T02:19:03,42.805,6.029,0.036,-0.064,-0.008,108.0,107.0,104.0,13.4,1505.2,359.4,-0.8,1.8,2471.67,13.29,0.073,150.6
2024-04-18T02:22:03,42.805,6.029,0.04,-0.066,0.015,106.0,106.0,105.0,13.4,1505.2,8.0,-0.8,1.8,2471.646,13.29,0.077,148.8
2024-04-18T02:25:03,42.805,6.029,0.03,-0.029,-0.009,107.0,107.0,105.0,13.4,1505.2,2.3,-0.7,1.8,2471.599,13.29,0.041,134.0
2024-04-18T02:28:03,42.805,6.029,0.04,-0.025,0.002,106.0,107.0,104.0,13.4,1505.2,354.0,-0.8,1.8,2471.632,13.29,0.047,122.0
2024-04-18T02:31:03,42.805,6.029,0.03,-0.05,0.021,107.0,107.0,105.0,13.4,1505.2,353.3,-0.7,1.8,2471.618,13.29,0.058,149.0
2024-04-18T02:34:03,42.805,6.029,0.043,-0.034,0.036,108.0,106.0,105.0,13.4,1505.2,357.7,-0.7,1.8,2471.649,13.29,0.054,128.3
2024-04-18T02:37:03,42.805,6.029,0.018,-0.043,0.006,109.0,107.0,105.0,13.4,1505.2,9.0,-0.7,1.8,2471.652,13.29,0.046,157.3
2024-04-18T02:40:03,42.805,6.029,0.024,-0.036,0.009,107.0,107.0,103.0,13.3,1505.2,7.4,-0.8,1.8,2471.633,13.29,0.043,146.3
2024-04-18T02:43:03,42.805,6.029,0.04,-0.038,-0.011,107.0,107.0,103.0,13.3,1505.2,351.9,-0.8,1.8,2471.648,13.29,0.055,133.5
2024-04-18T02:46:03,42.805,6.029,0.034,-0.054,-0.006,107.0,107.0,104.0,13.3,1505.2,4.1,-0.8,1.8,2471.642,13.29,0.063,147.8
2024-04-18T02:49:03,42.805,6.029,0.034,-0.067,0.015,108.0,108.0,104.0,13.3,1505.2,3.8,-0.8,1.8,2471.615,13.29,0.075,153.1
2024-04-18T02:52:03,42.805,6.029,0.022,-0.058,0.01,107.0,107.0,104.0,13.3,1505.2,3.4,-0.8,1.8,2471.661,13.29,0.062,159.2
2024-04-18T02:55:03,42.805,6.029,0.021,-0.074,-0.002,107.0,107.0,104.0,13.3,1505.2,9.1,-0.8,1.8,2471.661,13.29,0.076,164.2
2024-04-18T02:58:03,42.805,6.029,0.035,-0.031,-0.007,108.0,108.0,104.0,13.3,1505.2,357.7,-0.7,1.8,2471.628,13.29,0.046,131.5
2024-04-18T03:04:03,42.805,6.029,0.022,-0.038,-0.001,107.0,106.0,104.0,13.3,1505.2,355.7,-0.8,1.8,2471.655,13.28,0.043,149.9
2024-04-18T03:07:03,42.805,6.029,0.025,-0.056,0.003,107.0,105.0,104.0,13.4,1505.2,6.1,-0.8,1.8,2471.678,13.28,0.061,155.9
2024-04-18T03:10:03,42.805,6.029,0.032,-0.043,0.026,108.0,108.0,104.0,13.3,1505.2,3.3,-0.7,1.8,2471.636,13.29,0.053,143.3
2024-04-18T03:13:03,42.805,6.029,0.018,-0.051,0.036,109.0,107.0,104.0,13.4,1505.2,9.0,-0.8,1.8,2471.656,13.29,0.054,160.6
2024-04-18T03:16:04,42.805,6.029,0.012,-0.039,-0.012,107.0,107.0,104.0,13.4,1505.2,356.0,-0.8,1.8,2471.674,13.29,0.04,162.9
2024-04-18T03:19:04,42.805,6.029,0.017,-0.049,-0.014,109.0,108.0,103.0,13.3,1505.2,2.6,-0.8,1.8,2471.666,13.29,0.051,160.9
2024-04-18T03:22:03,42.805,6.029,0.028,-0.038,-0.02,107.0,107.0,105.0,13.4,1505.2,359.4,-0.7,1.8,2471.708,13.29,0.047,143.6
2024-04-18T03:25:03,42.805,6.029,0.039,-0.05,0.019,108.0,107.0,104.0,13.4,1505.2,5.1,-0.8,1.9,2471.624,13.29,0.063,142.0
2024-04-18T03:28:03,42.805,6.029,0.016,-0.027,0.017,108.0,108.0,103.0,13.4,1505.2,358.9,-0.8,1.8,2471.622,13.29,0.031,149.3
2024-04-18T03:31:03,42.805,6.029,-0.001,-0.059,0.035,108.0,107.0,103.0,13.3,1505.2,5.3,-0.8,1.8,2471.651,13.29,0.059,181.0
2024-04-18T03:34:03,42.805,6.029,0.034,-0.036,0.029,107.0,106.0,104.0,13.3,1505.2,9.6,-0.8,1.8,2471.644,13.29,0.049,136.6
2024-04-18T03:37:03,42.805,6.029,0.023,-0.043,-0.016,108.0,107.0,105.0,13.4,1505.2,356.7,-0.7,1.8,2471.644,13.29,0.048,151.9
2024-04-18T03:40:03,42.805,6.029,0.013,-0.045,0.007,108.0,107.0,105.0,13.4,1505.2,5.7,-0.7,1.8,2471.637,13.29,0.046,163.9
2024-04-18T03:43:03,42.805,6.029,0.019,-0.042,-0.021,107.0,106.0,103.0,13.3,1505.2,357.9,-0.8,1.8,2471.675,13.29,0.046,155.7
2024-04-18T03:46:03,42.805,6.029,0.023,-0.041,0.0,107.0,107.0,103.0,13.3,1505.2,0.5,-0.8,1.8,2471.681,13.29,0.047,150.7
2024-04-18T03:49:03,42.805,6.029,0.034,-0.054,0.005,108.0,108.0,104.0,13.4,1505.2,358.9,-0.8,1.8,2471.668,13.29,0.063,147.8
2024-04-18T03:52:03,42.805,6.029,0.027,-0.057,0.017,106.0,107.0,104.0,13.4,1505.2,7.3,-0.7,1.8,2471.64,13.29,0.063,154.7
2024-04-18T03:55:03,42.805,6.029,0.019,-0.054,-0.014,108.0,107.0,103.0,13.4,1505.2,2.8,-0.8,1.8,2471.66,13.29,0.057,160.6
2024-04-18T03:58:03,42.805,6.029,0.001,-0.032,0.001,107.0,107.0,103.0,13.4,1505.2,6.9,-0.7,1.8,2471.639,13.29,0.032,178.2
2024-04-18T04:04:03,42.805,6.029,0.046,-0.04,0.001,106.0,106.0,103.0,13.4,1505.2,2.1,-0.8,1.8,2471.687,13.28,0.06,131.0
2024-04-18T04:07:03,42.805,6.029,0.016,-0.044,0.0,107.0,106.0,103.0,13.4,1505.2,9.7,-0.7,1.8,2471.686,13.28,0.046,160.0
2024-04-18T04:10:03,42.805,6.029,0.025,-0.044,-0.031,106.0,105.0,103.0,13.3,1505.2,354.2,-0.8,1.8,2471.734,13.29,0.05,150.4
2024-04-18T04:13:03,42.805,6.029,0.016,-0.072,-0.009,108.0,106.0,102.0,13.3,1505.2,5.6,-0.8,1.8,2471.671,13.29,0.073,167.5
2024-04-18T04:16:03,42.805,6.029,0.019,-0.053,0.023,107.0,104.0,103.0,13.4,1505.2,354.0,-0.8,1.8,2471.646,13.29,0.056,160.3
2024-04-18T04:19:03,42.805,6.029,0.035,-0.058,0.005,106.0,106.0,103.0,13.4,1505.2,5.1,-0.8,1.9,2471.666,13.29,0.067,148.9
2024-04-18T04:22:03,42.805,6.029,0.025,-0.048,-0.005,107.0,106.0,103.0,13.4,1505.2,358.8,-0.7,1.8,2471.659,13.29,0.054,152.5
2024-04-18T04:25:03,42.805,6.029,0.034,-0.053,0.018,107.0,106.0,103.0,13.4,1505.2,5.7,-0.8,1.9,2471.681,13.29,0.062,147.3
2024-04-18T04:28:03,42.805,6.029,0.035,-0.024,0.003,106.0,105.0,103.0,13.4,1505.2,2.5,-0.8,1.8,2471.682,13.29,0.042,124.4
2024-04-18T04:31:03,42.805,6.029,-0.001,-0.033,-0.002,108.0,105.0,103.0,13.4,1505.2,359.4,-0.8,1.8,2471.693,13.29,0.033,181.7
2024-04-18T04:34:03,42.805,6.029,0.015,-0.041,0.009,108.0,106.0,103.0,13.4,1505.2,1.1,-0.7,1.8,2471.673,13.29,0.043,159.9
2024-04-18T04:37:03,42.805,6.029,0.015,-0.054,-0.003,106.0,107.0,104.0,13.4,1505.2,1.1,-0.8,1.8,2471.664,13.29,0.056,164.5
2024-04-18T04:40:03,42.805,6.029,0.011,-0.076,-0.005,107.0,106.0,103.0,13.4,1505.2,8.4,-0.8,1.8,2471.711,13.29,0.076,171.8
2024-04-18T04:43:03,42.805,6.029,0.028,-0.057,-0.008,107.0,107.0,103.0,13.4,1505.2,1.0,-0.8,1.8,2471.68,13.29,0.063,153.8
2024-04-18T04:46:03,42.805,6.029,0.018,-0.047,-0.003,107.0,106.0,102.0,13.4,1505.2,358.8,-0.8,1.8,2471.683,13.29,0.05,159.0
2024-04-18T04:49:03,42.805,6.029,0.025,-0.059,0.043,106.0,106.0,104.0,13.4,1505.2,357.7,-0.7,1.8,2471.658,13.29,0.064,157.0
2024-04-18T04:52:03,42.805,6.029,0.025,-0.059,0.006,107.0,107.0,104.0,13.4,1505.2,8.2,-0.7,1.8,2471.672,13.29,0.064,157.0
2024-04-18T04:55:03,42.805,6.029,0.001,-0.055,-0.016,106.0,106.0,104.0,13.4,1505.2,8.5,-0.7,1.8,2471.632,13.29,0.055,179.0
2024-04-18T04:58:03,42.805,6.029,0.025,-0.045,-0.002,106.0,108.0,103.0,13.4,1505.2,2.5,-0.8,1.9,2471.701,13.29,0.051,150.9
2024-04-18T05:04:03,42.805,6.029,0.003,-0.03,-0.026,107.0,105.0,104.0,13.4,1505.2,4.3,-0.8,1.8,2471.709,13.28,0.03,174.3
2024-04-18T05:07:03,42.805,6.029,0.024,-0.033,0.017,107.0,106.0,102.0,13.3,1505.2,357.2,-0.8,1.8,2471.686,13.29,0.04,144.0
2024-04-18T05:10:03,42.805,6.029,-0.003,-0.036,0.01,105.0,105.0,103.0,13.4,1505.2,6.5,-0.8,1.8,2471.709,13.29,0.036,184.8
2024-04-18T05:13:03,42.805,6.029,0.012,-0.041,0.005,106.0,105.0,103.0,13.4,1505.2,5.4,-0.7,1.8,2471.697,13.29,0.042,163.7
2024-04-18T05:16:03,42.805,6.029,0.027,-0.043,0.019,107.0,102.0,102.0,13.3,1505.2,352.1,-0.8,1.8,2471.702,13.29,0.05,147.9
2024-04-18T05:19:03,42.805,6.029,0.026,-0.065,0.018,107.0,105.0,104.0,13.4,1505.2,6.2,-0.8,1.8,2471.676,13.29,0.07,158.2
2024-04-18T05:22:03,42.805,6.029,0.035,-0.068,-0.026,105.0,104.0,102.0,13.4,1505.2,5.4,-0.8,1.8,2471.659,13.29,0.076,152.8
2024-04-18T05:25:03,42.805,6.029,0.013,-0.057,0.016,105.0,104.0,103.0,13.4,1505.2,7.0,-0.8,1.8,2471.67,13.29,0.058,167.2
2024-04-18T05:28:03,42.805,6.029,0.012,-0.046,0.006,105.0,105.0,103.0,13.4,1505.2,3.0,-0.7,1.8,2471.644,13.29,0.047,165.4
2024-04-18T05:31:03,42.805,6.029,0.028,-0.06,-0.036,105.0,107.0,103.0,13.4,1505.2,352.5,-0.8,1.8,2471.654,13.29,0.066,155.0
2024-04-18T05:34:03,42.805,6.029,0.039,-0.045,-0.002,105.0,104.0,103.0,13.4,1505.2,3.5,-0.8,1.8,2471.655,13.29,0.059,139.1
2024-04-18T05:37:03,42.805,6.029,0.004,-0.029,-0.004,106.0,104.0,102.0,13.4,1505.2,357.7,-0.7,1.8,2471.693,13.29,0.029,172.2
2024-04-18T05:40:03,42.805,6.029,0.011,-0.038,0.033,105.0,106.0,103.0,13.4,1505.2,9.9,-0.7,1.8,2471.693,13.29,0.039,163.9
2024-04-18T05:43:03,42.805,6.029,0.043,-0.025,0.019,105.0,106.0,102.0,13.4,1505.2,352.8,-0.8,1.8,2471.682,13.29,0.049,120.2
2024-04-18T05:46:03,42.805,6.029,0.026,-0.05,-0.003,106.0,106.0,102.0,13.3,1505.2,356.2,-0.8,1.8,2471.667,13.29,0.056,152.5
2024-04-18T05:49:03,42.805,6.029,0.01,-0.045,0.001,106.0,106.0,102.0,13.4,1505.2,1.7,-0.8,1.8,2471.664,13.29,0.046,167.5
2024-04-18T05:52:03,42.805,6.029,0.023,-0.046,-0.009,106.0,106.0,102.0,13.4,1505.2,4.0,-0.8,1.8,2471.672,13.29,0.051,153.4
2024-04-18T05:55:03,42.805,6.029,0.009,-0.041,0.018,106.0,105.0,103.0,13.4,1505.2,358.4,-0.8,1.8,2471.686,13.29,0.041,167.6
2024-04-18T05:58:03,42.805,6.029,0.026,-0.024,0.001,106.0,104.0,101.0,13.4,1505.2,353.9,-0.7,1.8,2471.664,13.29,0.035,132.7
2024-04-18T06:04:03,42.805,6.029,-0.002,-0.044,-0.021,105.0,105.0,103.0,13.4,1505.2,7.4,-0.8,1.8,2471.68,13.28,0.044,182.6
2024-04-18T06:07:03,42.805,6.029,0.019,-0.051,0.019,105.0,105.0,102.0,13.3,1505.2,9.7,-0.7,1.8,2471.662,13.29,0.054,159.6
2024-04-18T07:04:03,42.805,6.029,0.022,-0.032,-0.012,105.0,104.0,102.0,13.4,1505.2,359.4,-0.8,1.8,2472.151,13.28,0.038,145.5
2024-04-18T07:07:03,42.805,6.029,0.022,-0.037,-0.018,105.0,105.0,102.0,13.4,1505.2,6.8,-0.7,1.8,2472.042,13.28,0.043,149.3
2024-04-18T07:10:03,42.805,6.029,0.009,-0.034,-0.007,104.0,104.0,103.0,13.4,1505.2,2.5,-0.8,1.8,2472.009,13.28,0.035,165.2
2024-04-18T07:13:03,42.805,6.029,0.016,-0.028,0.007,105.0,105.0,102.0,13.4,1505.2,5.0,-0.7,1.8,2471.924,13.28,0.032,150.3
2024-04-18T07:16:03,42.805,6.029,0.004,-0.038,-0.001,106.0,106.0,103.0,13.4,1505.2,9.9,-0.7,1.8,2471.928,13.29,0.038,174.0
2024-04-18T07:19:03,42.805,6.029,0.026,-0.013,-0.002,106.0,107.0,103.0,13.4,1505.2,352.2,-0.8,1.8,2471.901,13.29,0.029,116.6
2024-04-18T07:22:03,42.805,6.029,0.013,-0.064,-0.013,107.0,106.0,103.0,13.3,1505.2,353.4,-0.8,1.8,2471.879,13.29,0.065,168.5
2024-04-18T07:25:03,42.805,6.029,0.026,-0.038,0.001,107.0,105.0,103.0,13.4,1505.2,4.3,-0.8,1.8,2471.814,13.29,0.046,145.6
2024-04-18T07:28:03,42.805,6.029,-0.006,-0.031,0.023,106.0,105.0,102.0,13.4,1505.2,7.8,-0.8,1.8,2471.742,13.29,0.031,191.0
2024-04-18T07:31:03,42.805,6.029,0.035,-0.026,0.028,106.0,106.0,103.0,13.4,1505.2,353.4,-0.7,1.8,2471.79,13.29,0.043,126.6
2024-04-18T07:34:03,42.805,6.029,0.016,-0.049,0.0,106.0,106.0,102.0,13.4,1505.2,354.6,-0.8,1.8,2471.718,13.29,0.051,161.9
2024-04-18T07:37:03,42.805,6.029,0.022,-0.03,0.01,106.0,107.0,101.0,13.3,1505.2,357.2,-0.8,1.8,2471.736,13.29,0.037,143.7
2024-04-18T07:40:03,42.805,6.029,0.018,-0.029,0.012,105.0,104.0,102.0,13.3,1505.2,357.8,-0.7,1.8,2471.725,13.29,0.034,148.2
2024-04-18T07:43:03,42.805,6.029,0.005,-0.032,0.01,106.0,105.0,103.0,13.3,1505.2,8.7,-0.8,1.8,2471.684,13.29,0.032,171.1
2024-04-18T07:46:03,42.805,6.029,0.011,-0.038,0.008,106.0,107.0,103.0,13.4,1505.2,4.0,-0.8,1.8,2471.64,13.29,0.039,163.9
2024-04-18T07:49:03,42.805,6.029,0.012,-0.036,0.022,106.0,105.0,103.0,13.3,1505.2,5.3,-0.7,1.8,2471.66,13.29,0.037,161.6
2024-04-18T07:52:03,42.805,6.029,0.014,-0.055,-0.001,106.0,105.0,103.0,13.4,1505.2,0.5,-0.8,1.8,2471.666,13.29,0.056,165.7
2024-04-18T07:55:03,42.805,6.029,0.024,-0.063,-0.024,106.0,106.0,103.0,13.3,1505.2,1.7,-0.7,1.8,2471.614,13.29,0.067,159.1
2024-04-18T07:58:03,42.805,6.029,0.005,-0.039,0.013,104.0,105.0,102.0,13.4,1505.2,1.6,-0.7,1.8,2471.646,13.29,0.039,172.7
2024-04-18T08:04:03,42.805,6.029,0.019,-0.031,-0.002,105.0,104.0,102.0,13.4,1505.2,357.2,-0.8,1.8,2471.659,13.28,0.036,148.5
2024-04-18T08:07:03,42.805,6.029,0.0,-0.042,-0.006,106.0,105.0,103.0,13.4,1505.2,0.0,-0.8,1.8,2471.636,13.28,0.042,180.0
2024-04-18T08:10:03,42.805,6.029,0.003,-0.035,0.017,105.0,105.0,102.0,13.4,1505.2,6.4,-0.8,1.8,2471.646,13.29,0.035,175.1
2024-04-18T08:13:03,42.805,6.029,0.015,-0.038,-0.001,104.0,103.0,103.0,13.4,1505.2,5.9,-0.7,1.8,2471.651,13.29,0.04,158.5
2024-04-18T08:16:03,42.805,6.029,-0.016,-0.031,-0.034,104.0,104.0,102.0,13.4,1505.2,354.1,-0.8,1.8,2471.617,13.29,0.034,207.3
2024-04-18T08:19:03,42.805,6.029,0.013,-0.032,-0.003,105.0,106.0,103.0,13.3,1505.2,358.9,-0.8,1.8,2471.619,13.29,0.034,157.9
2024-04-18T08:22:03,42.805,6.029,0.02,-0.031,0.009,105.0,104.0,102.0,13.3,1505.2,358.3,-0.7,1.8,2471.586,13.29,0.036,147.2
2024-04-18T08:25:03,42.805,6.029,-0.003,-0.033,-0.009,106.0,105.0,103.0,13.3,1505.2,8.8,-0.7,1.8,2471.6,13.29,0.033,185.2
2024-04-18T08:28:03,42.805,6.029,0.02,-0.035,0.013,105.0,105.0,103.0,13.4,1505.2,1.5,-0.8,1.8,2471.657,13.29,0.04,150.3
2024-04-18T08:31:03,42.805,6.029,0.022,-0.041,0.004,106.0,105.0,102.0,13.4,1505.2,354.0,-0.8,1.8,2471.597,13.29,0.046,151.8
2024-04-18T08:34:03,42.805,6.029,0.007,-0.043,0.027,105.0,106.0,102.0,13.4,1505.2,5.0,-0.8,1.8,2471.607,13.29,0.043,170.8
2024-04-18T08:37:03,42.805,6.029,0.025,-0.032,0.0,106.0,105.0,102.0,13.3,1505.2,358.3,-0.8,1.8,2471.609,13.29,0.04,142.0
2024-04-18T08:40:03,42.805,6.029,0.02,-0.031,0.014,104.0,106.0,103.0,13.3,1505.2,6.2,-0.8,1.8,2471.593,13.29,0.036,147.2
2024-04-18T08:43:03,42.805,6.029,0.023,-0.04,0.01,106.0,103.0,102.0,13.3,1505.2,7.4,-0.7,1.8,2471.59,13.29,0.046,150.1
2024-04-18T08:46:03,42.805,6.029,0.006,-0.018,0.022,105.0,106.0,102.0,13.3,1505.2,6.4,-0.7,1.8,2471.565,13.29,0.018,161.6
2024-04-18T08:49:03,42.805,6.029,0.015,-0.018,0.002,106.0,105.0,103.0,13.3,1505.2,5.9,-0.8,1.8,2471.54,13.29,0.023,140.2
2024-04-18T08:52:03,42.805,6.029,0.015,-0.038,0.013,104.0,105.0,102.0,13.3,1505.2,353.0,-0.7,1.8,2471.553,13.29,0.04,158.5
2024-04-18T08:55:03,42.805,6.029,0.021,-0.041,-0.013,105.0,105.0,103.0,13.4,1505.2,357.0,-0.7,1.8,2471.577,13.29,0.046,152.9
2024-04-18T08:58:03,42.805,6.029,0.026,-0.053,0.0,106.0,104.0,103.0,13.4,1505.2,5.7,-0.8,1.8,2471.602,13.29,0.059,153.9
2024-04-18T09:04:03,42.805,6.029,0.018,-0.034,-0.006,105.0,106.0,103.0,13.3,1505.2,4.3,-0.8,1.8,2471.6,13.28,0.038,152.1
2024-04-18T09:07:03,42.805,6.029,0.0,-0.051,0.018,106.0,104.0,102.0,13.4,1505.2,10.0,-0.8,1.8,2471.588,13.29,0.051,180.0
2024-04-18T09:10:03,42.805,6.029,0.03,-0.045,-0.005,105.0,104.0,103.0,13.4,1505.2,5.3,-0.8,1.8,2471.57,13.29,0.054,146.3
2024-04-18T09:13:03,42.805,6.029,0.016,-0.049,-0.01,106.0,106.0,102.0,13.3,1505.2,356.0,-0.8,1.8,2471.568,13.29,0.051,161.9
2024-04-18T09:16:03,42.805,6.029,0.026,-0.029,-0.001,105.0,106.0,102.0,13.4,1505.2,3.4,-0.8,1.8,2471.588,13.29,0.038,138.1
2024-04-18T09:19:03,42.805,6.029,0.031,-0.039,-0.021,106.0,105.0,102.0,13.4,1505.2,358.3,-0.8,1.8,2471.552,13.29,0.049,141.5
2024-04-18T09:22:03,42.805,6.029,0.004,-0.015,-0.013,104.0,104.0,103.0,13.4,1505.2,4.3,-0.8,1.8,2471.569,13.29,0.015,165.1
2024-04-18T09:25:03,42.805,6.029,0.014,-0.049,0.028,106.0,104.0,102.0,13.4,1505.2,10.0,-0.8,1.8,2471.59,13.29,0.05,164.1
2024-04-18T09:28:03,42.805,6.029,0.024,-0.032,0.007,105.0,105.0,102.0,13.4,1505.2,352.7,-0.8,1.8,2471.578,13.29,0.04,143.1
2024-04-18T09:31:03,42.805,6.029,0.028,-0.049,-0.032,104.0,105.0,102.0,13.4,1505.2,354.2,-0.7,1.8,2471.542,13.29,0.056,150.3
2024-04-18T09:34:03,42.805,6.029,0.008,-0.044,-0.028,105.0,107.0,102.0,13.3,1505.2,357.2,-0.8,1.8,2471.578,13.29,0.044,169.7
2024-04-18T09:37:03,42.805,6.029,0.002,-0.037,0.0,105.0,105.0,103.0,13.4,1505.2,8.8,-0.7,1.8,2471.595,13.29,0.037,176.9
2024-04-18T09:40:03,42.805,6.029,0.036,-0.021,0.001,106.0,105.0,102.0,13.4,1505.2,356.0,-0.8,1.8,2471.607,13.29,0.041,120.3
2024-04-18T09:43:03,42.805,6.029,-0.004,-0.027,0.0,106.0,104.0,101.0,13.3,1505.2,2.3,-0.7,1.8,2471.559,13.29,0.027,188.4
2024-04-18T09:46:03,42.805,6.029,0.005,-0.035,-0.013,105.0,105.0,102.0,13.4,1505.2,358.3,-0.8,1.8,2471.549,13.29,0.035,171.9
2024-04-18T09:49:03,42.805,6.029,0.028,-0.028,0.034,106.0,103.0,103.0,13.4,1505.2,357.8,-0.8,1.8,2471.525,13.29,0.039,135.0
2024-04-18T09:52:03,42.805,6.029,0.027,-0.039,-0.009,105.0,103.0,104.0,13.4,1505.2,354.8,-0.8,1.8,2471.568,13.29,0.047,145.3
2024-04-18T09:55:03,42.805,6.029,0.019,-0.041,-0.023,106.0,103.0,103.0,13.4,1505.2,1.6,-0.8,1.7,2471.528,13.29,0.045,155.1
2024-04-18T09:58:03,42.805,6.029,0.027,-0.032,0.007,106.0,106.0,101.0,13.4,1505.2,2.8,-0.8,1.8,2471.534,13.29,0.041,139.8
2024-04-18T10:04:03,42.805,6.029,0.032,-0.029,-0.001,107.0,106.0,102.0,13.4,1505.2,359.4,-0.8,1.8,2471.585,13.28,0.043,132.2
2024-04-18T10:07:03,42.805,6.029,0.006,-0.043,-0.014,105.0,106.0,103.0,13.3,1505.2,2.7,-0.8,1.8,2471.594,13.29,0.043,172.1
2024-04-18T10:10:03,42.805,6.029,0.011,-0.042,0.008,105.0,104.0,102.0,13.4,1505.2,0.5,-0.8,1.8,2471.568,13.29,0.043,165.3
2024-04-18T10:13:03,42.805,6.029,0.015,-0.031,0.002,106.0,105.0,103.0,13.3,1505.2,352.2,-0.7,1.8,2471.574,13.29,0.034,154.2
2024-04-18T10:16:03,42.805,6.029,0.034,-0.031,0.028,107.0,105.0,103.0,13.4,1505.2,4.3,-0.8,1.8,2471.548,13.29,0.046,132.4
2024-04-18T10:19:03,42.805,6.029,0.025,-0.017,-0.009,105.0,106.0,104.0,13.4,1505.2,358.3,-0.8,1.8,2471.56,13.29,0.03,124.2
2024-04-18T10:22:03,42.805,6.029,-0.008,-0.025,-0.015,105.0,105.0,102.0,13.4,1505.2,0.0,-0.8,1.8,2471.569,13.29,0.026,197.7
2024-04-18T10:25:03,42.805,6.029,0.014,-0.045,0.005,106.0,105.0,103.0,13.3,1505.2,3.7,-0.7,1.8,2471.538,13.29,0.047,162.7
2024-04-18T10:28:03,42.805,6.029,0.025,-0.038,0.024,105.0,105.0,103.0,13.4,1505.2,0.5,-0.8,1.8,2471.597,13.29,0.045,146.7
2024-04-18T10:31:03,42.805,6.029,0.022,-0.05,0.016,105.0,105.0,103.0,13.3,1505.2,6.5,-0.8,1.8,2471.556,13.29,0.054,156.3
2024-04-18T10:34:03,42.805,6.029,0.016,-0.032,0.02,107.0,106.0,103.0,13.4,1505.2,1.5,-0.8,1.8,2471.536,13.29,0.035,153.4
2024-04-18T10:37:03,42.805,6.029,0.018,-0.034,0.006,107.0,105.0,102.0,13.4,1505.2,357.6,-0.7,1.8,2471.547,13.29,0.038,152.1
2024-04-18T10:40:03,42.805,6.029,0.027,-0.055,-0.04,106.0,106.0,103.0,13.4,1505.2,358.9,-0.8,1.8,2471.539,13.29,0.061,153.9
2024-04-18T10:43:03,42.805,6.029,0.024,-0.041,-0.013,105.0,107.0,102.0,13.4,1505.2,357.1,-0.7,1.8,2471.562,13.29,0.047,149.7
2024-04-18T10:46:03,42.805,6.029,0.035,-0.026,0.01,106.0,106.0,103.0,13.4,1505.2,355.7,-0.8,1.8,2471.504,13.29,0.043,126.6
2024-04-18T10:49:03,42.805,6.029,0.023,-0.045,-0.017,106.0,105.0,103.0,13.3,1505.2,4.6,-0.8,1.8,2471.542,13.29,0.05,152.9
2024-04-18T10:52:03,42.805,6.029,0.013,-0.04,0.011,106.0,105.0,102.0,13.3,1505.2,357.2,-0.7,1.8,2471.563,13.29,0.042,162.0